Kalispell, MT

6:57 PM MST on January 18, 2018 (GMT -0700)
Glacier Park International

Weather History for KGPI - March, 2014

Change the Weather History Date:

Wednesday, March 26, 2014

  Actual Average Record
Temperature  
Mean Temperature 42 °F 39 °F  
Max Temperature 54 °F 50 °F 66 °F (1978)
Min Temperature 29 °F 28 °F -7 °F (1955)
Degree Days  
Heating Degree Days 23 26  
Month to date heating degree days 826 792  
Since 1 July heating degree days 6760 6644  
Cooling Degree Days 0 0  
Month to date cooling degree days 0 0  
Year to date cooling degree days 0 0  
Moisture  
Dew Point 27 °F    
Average Humidity 55    
Maximum Humidity 82    
Minimum Humidity 28    
Precipitation  
Precipitation T in 0.04 in 0.46 in (1914)
Month to date precipitation 2.17 0.91  
Year to date precipitation 4.61 3.21  
Snow  
Snow 0.00 in - - ()
Month to date snowfall 12.4  
Year to date snowfall 37.6  
Since 1 July snowfall 71.1  
Snow Depth 0.00 in    
Sea Level Pressure  
Sea Level Pressure 29.54 in    
Wind  
Wind Speed 9 mph (SSW)    
Max Wind Speed 21 mph    
Max Gust Speed 27 mph    
Visibility 10 miles    
Events Rain    
T = Trace of Precipitation, MM = Missing Value Source: NWS Daily Summary

Daily Weather History Graph

Daily Weather History Graph

Search for Another Location

Airport or City:

Trip Planner

Search our weather history database for the weather conditions in past years. The results will help you decide how hot, cold, wet, or windy it might be!

Date:

Astronomy

Mar. 26, 2014 Rise Set
Actual Time 7:27 AM MDT 7:58 PM MDT
Civil Twilight 6:55 AM MDT 8:30 PM MDT
Nautical Twilight 6:18 AM MDT 9:07 PM MDT
Astronomical Twilight 5:40 AM MDT 9:46 PM MDT
Moon 4:58 AM MDT (3/26) 3:23 PM MDT (3/26)
Length of Visible Light 13h 34m
Length of Day
12h 31m
Waning Crescent, 21% of the Moon is Illuminated
Mar 26
Waning Crescent
Mar 30
New
Apr 7
First Quarter
Apr 15
Full
Apr 22
Last Quarter

Hourly Weather History & Observations

Time (MDT) Temp. Windchill Dew Point Humidity Pressure Visibility Wind Dir Wind Speed Gust Speed Precip Events Conditions
12:55 AM 43.0 °F 37.7 °F 33.1 °F 68% 29.57 in 10.0 mi SSW 9.2 mph - N/A   Overcast
1:55 AM 43.0 °F 36.8 °F 32.0 °F 65% 29.57 in 10.0 mi SSW 11.5 mph - N/A   Scattered Clouds
2:55 AM 39.9 °F 35.1 °F 32.0 °F 73% 29.57 in 10.0 mi South 6.9 mph - N/A   Partly Cloudy
3:55 AM 39.9 °F 32.9 °F 33.1 °F 77% 29.56 in 10.0 mi SSE 11.5 mph - N/A   Overcast
4:55 AM 39.0 °F 33.4 °F 33.1 °F 79% 29.55 in 10.0 mi South 8.1 mph - N/A   Mostly Cloudy
5:55 AM 39.9 °F 33.9 °F 33.1 °F 77% 29.56 in 10.0 mi SSE 9.2 mph - N/A   Overcast
6:55 AM 39.0 °F 34.8 °F 33.1 °F 79% 29.56 in 10.0 mi South 5.8 mph - N/A   Overcast
7:55 AM 37.9 °F 32.1 °F 32.0 °F 79% 29.56 in 10.0 mi SSW 8.1 mph - N/A   Clear
8:55 AM 41.0 °F 36.4 °F 33.1 °F 73% 29.56 in 10.0 mi South 6.9 mph - N/A   Mostly Cloudy
9:55 AM 42.1 °F 36.1 °F 32.0 °F 67% 29.55 in 10.0 mi SE 10.4 mph - N/A   Scattered Clouds
10:55 AM 46.0 °F 41.4 °F 28.9 °F 51% 29.55 in 10.0 mi SSW 9.2 mph - N/A   Clear
11:55 AM 46.9 °F - 25.0 °F 42% 29.55 in 10.0 mi South 13.8 mph - N/A   Scattered Clouds
12:55 PM 48.0 °F - 23.0 °F 37% 29.54 in 10.0 mi SSW 12.7 mph - N/A   Mostly Cloudy
1:55 PM 51.1 °F - 21.0 °F 31% 29.52 in 10.0 mi SW 13.8 mph 27.6 mph N/A   Mostly Cloudy
2:55 PM 52.0 °F - 19.9 °F 28% 29.51 in 10.0 mi SSW 17.3 mph 21.9 mph N/A   Mostly Cloudy
3:55 PM 48.9 °F - 25.0 °F 39% 29.50 in 10.0 mi SSE 16.1 mph - N/A   Mostly Cloudy
4:55 PM 52.0 °F - 19.9 °F 28% 29.49 in 10.0 mi SSW 11.5 mph 20.7 mph N/A   Overcast
5:55 PM 52.0 °F - 21.9 °F 31% 29.50 in 10.0 mi SW 16.1 mph - N/A   Overcast
6:55 PM 48.9 °F - 21.0 °F 33% 29.51 in 10.0 mi West 10.4 mph - 0.00 in Rain Light Rain
7:55 PM 45.0 °F 41.8 °F 21.0 °F 39% 29.52 in 10.0 mi WSW 5.8 mph - 0.00 in   Mostly Cloudy
8:55 PM 37.9 °F 33.5 °F 21.9 °F 53% 29.54 in 10.0 mi SW 5.8 mph - N/A   Clear
9:55 PM 36.0 °F 31.1 °F 23.0 °F 59% 29.55 in 10.0 mi SSE 5.8 mph - N/A   Clear
10:55 PM 35.1 °F - 24.1 °F 64% 29.56 in 10.0 mi Calm Calm - N/A   Clear
11:55 PM 33.1 °F 30.0 °F 25.0 °F 72% 29.56 in 10.0 mi South 3.5 mph - N/A   Clear